Date String (YYYY-MM-DD hh:mm:ss) UTC,Instrument flags,absolute air pressure of the measurement (hPa),sample flow rate (lpm),inlet stack bypass flow (lpm),air temperature of the measurement (°C),ambient temperature measured by the external sensor (°C),aerosol sample conditioner tube jacket temperature (°C),OPC LED temperature (°C),internal box temperature (°C),relative humidity of the measurement (%),span deviation,mass concentration of particles derived from Lorenz-Mie calculation of OPC scattering (μg/m³),mass concentration of particles derived from Lorenz-Mie calculation of OPC scattering (μg/m³),mass concentration of particles derived from Lorenz-Mie calculation of OPC scattering (μg/m³)
DateTimeUTC,F1_M11,P_M11,Q1_M11,Q2_M11,T1_M11,T2_M11,T3_M11,T4_M11,T5_M11,U1_M11,ZSPAN_M11,X2_M11,X0_M11,X1_M11
2024-03-18 22:00:00,SystemResetWarning,0832.4,5.01,000.00,022.1,021.5,000.0,030.5,023.9,13.0,0000.0,0003.19,0009.96,0002.40
2024-03-18 22:01:00,SystemResetWarning,0832.5,4.98,000.00,022.1,021.5,000.0,030.5,023.9,13.1,0000.0,0003.19,0010.10,0002.44
2024-03-18 22:02:00,SystemResetWarning,0832.5,4.99,000.00,022.1,021.5,000.0,030.5,023.9,13.0,0000.0,0003.22,0010.13,0002.45
2024-03-18 22:03:00,SystemResetWarning,0832.4,5.00,000.00,022.1,021.5,000.0,030.5,023.9,12.9,0000.0,0003.23,0010.16,0002.47
2024-03-18 22:04:00,SystemResetWarning,0832.4,5.00,000.00,022.1,021.5,000.0,030.5,023.9,13.2,0000.0,0003.23,0009.96,0002.47
2024-03-18 22:05:00,SystemResetWarning,0832.4,5.00,000.00,022.2,021.5,000.0,030.5,023.9,13.4,0000.0,0003.19,0010.26,0002.48
2024-03-18 22:06:00,SystemResetWarning,0832.4,5.00,000.00,022.2,021.5,000.0,030.5,023.9,12.5,0000.0,0003.20,0010.15,0002.50
2024-03-18 22:07:00,SystemResetWarning,0832.4,5.01,000.00,022.2,021.5,000.0,030.5,023.9,12.2,0000.0,0003.20,0010.29,0002.51
2024-03-18 22:08:00,SystemResetWarning,0832.4,5.01,000.00,022.2,021.5,000.0,030.5,023.9,12.8,0000.0,0003.26,0010.42,0002.52
2024-03-18 22:09:00,SystemResetWarning,0832.4,4.99,000.00,022.2,021.6,000.0,030.5,024.0,13.3,0000.0,0003.26,0010.12,0002.49
2024-03-18 22:10:00,SystemResetWarning,0832.4,4.99,000.00,022.2,021.6,000.0,030.5,024.0,13.0,0000.0,0003.25,0009.41,0002.47
2024-03-18 22:11:00,SystemResetWarning,0832.4,4.99,000.00,022.2,021.6,000.0,030.5,024.0,12.8,0000.0,0003.24,0009.10,0002.45
2024-03-18 22:12:00,SystemResetWarning,0832.4,5.00,000.00,022.2,021.6,000.0,030.5,024.0,12.9,0000.0,0003.24,0009.55,0002.44
2024-03-18 22:13:00,SystemResetWarning,0832.4,5.00,000.00,022.2,021.6,000.0,030.6,024.0,13.3,0000.0,0003.21,0009.76,0002.45
2024-03-18 22:14:00,SystemResetWarning,0832.4,5.01,000.00,022.2,021.6,000.0,030.6,024.0,13.4,0000.0,0003.20,0009.69,0002.45
2024-03-18 22:15:00,SystemResetWarning,0832.4,5.01,000.00,022.2,021.6,000.0,030.6,024.0,12.6,0000.0,0003.22,0010.04,0002.47
2024-03-18 22:16:00,SystemResetWarning,0832.3,5.00,000.00,022.2,021.6,000.0,030.6,024.0,12.7,0000.0,0003.24,0010.18,0002.47
2024-03-18 22:17:00,SystemResetWarning,0832.4,5.00,000.00,022.2,021.6,000.0,030.6,024.0,13.6,0000.0,0003.23,0009.40,0002.46
2024-03-18 22:18:00,SystemResetWarning,0832.4,4.99,000.00,022.2,021.6,000.0,030.6,024.0,12.5,0000.0,0003.25,0009.10,0002.47
2024-03-18 22:19:00,SystemResetWarning,0832.4,5.00,000.00,022.3,021.6,000.0,030.6,024.0,13.3,0000.0,0003.20,0008.38,0002.45
2024-03-18 22:20:00,SystemResetWarning,0832.4,4.99,000.00,022.3,021.6,000.0,030.6,024.0,12.6,0000.0,0003.17,0008.78,0002.48
2024-03-18 22:21:00,SystemResetWarning,0832.4,5.00,000.00,022.3,021.6,000.0,030.6,024.0,13.5,0000.0,0003.21,0008.93,0002.50
2024-03-18 22:22:00,SystemResetWarning,0832.4,5.00,000.00,022.3,021.6,000.0,030.6,024.1,14.0,0000.0,0003.22,0008.69,0002.51
2024-03-18 22:23:00,SystemResetWarning,0832.4,5.00,000.00,022.3,021.7,000.0,030.6,024.1,12.9,0000.0,0003.19,0008.53,0002.51
2024-03-18 22:24:00,SystemResetWarning,0832.4,5.00,000.00,022.3,021.7,000.0,030.6,024.1,13.7,0000.0,0003.22,0007.88,0002.52
2024-03-18 22:25:00,SystemResetWarning,0832.4,5.01,000.00,022.3,021.7,000.0,030.7,024.1,12.9,0000.0,0003.27,0007.98,0002.56
2024-03-18 22:26:00,SystemResetWarning,0832.4,5.00,000.00,022.3,021.7,000.0,030.7,024.1,12.5,0000.0,0003.32,0008.46,0002.61
2024-03-18 22:27:00,SystemResetWarning,0832.4,4.99,000.00,022.3,021.7,000.0,030.7,024.1,12.6,0000.0,0003.36,0008.07,0002.67
2024-03-18 22:28:00,SystemResetWarning,0832.3,4.99,000.00,022.3,021.7,000.0,030.7,024.1,12.6,0000.0,0003.40,0008.13,0002.72
2024-03-18 22:29:00,SystemResetWarning,0832.3,4.99,000.00,022.3,021.7,000.0,030.7,024.1,12.6,0000.0,0003.40,0007.92,0002.77
2024-03-18 22:30:00,SystemResetWarning,0832.3,5.00,000.00,022.3,021.7,000.0,030.7,024.1,12.5,0000.0,0003.43,0007.85,0002.84
2024-03-18 22:31:00,SystemResetWarning,0832.3,5.00,000.00,022.3,021.7,000.0,030.7,024.1,12.7,0000.0,0003.50,0007.65,0002.88
2024-03-18 22:32:00,SystemResetWarning,0832.3,5.00,000.00,022.3,021.7,000.0,030.7,024.1,12.9,0000.0,0003.51,0007.50,0002.91
2024-03-18 22:33:00,SystemResetWarning,0832.3,5.00,000.00,022.3,021.7,000.0,030.7,024.1,12.9,0000.0,0003.54,0007.58,0002.96
2024-03-18 22:34:00,SystemResetWarning,0832.3,5.01,000.00,022.4,021.7,000.0,030.7,024.1,13.1,0000.0,0003.58,0007.87,0003.00
2024-03-18 22:35:00,SystemResetWarning,0832.3,5.00,000.00,022.4,021.8,000.0,030.7,024.1,13.1,0000.0,0003.57,0007.80,0003.03
2024-03-18 22:36:00,SystemResetWarning,0832.3,5.00,000.00,022.4,021.8,000.0,030.7,024.2,13.5,0000.0,0003.57,0007.80,0003.03
2024-03-18 22:37:00,SystemResetWarning,0832.3,4.99,000.00,022.4,021.8,000.0,030.7,024.2,13.6,0000.0,0003.56,0007.11,0003.02
2024-03-18 22:38:00,SystemResetWarning,0832.3,4.99,000.00,022.4,021.8,000.0,030.7,024.2,12.4,0000.0,0003.56,0007.93,0003.03
2024-03-18 22:39:00,SystemResetWarning,0832.3,5.01,000.00,022.4,021.8,000.0,030.8,024.2,12.4,0000.0,0003.58,0008.63,0003.06
2024-03-18 22:40:00,SystemResetWarning,0832.3,5.00,000.00,022.4,021.8,000.0,030.8,024.2,13.1,0000.0,0003.60,0008.65,0003.06
2024-03-18 22:41:00,SystemResetWarning,0832.3,5.01,000.00,022.4,021.8,000.0,030.8,024.2,13.3,0000.0,0003.63,0008.78,0003.06
2024-03-18 22:42:00,SystemResetWarning,0832.3,5.00,000.00,022.4,021.8,000.0,030.8,024.2,13.0,0000.0,0003.63,0008.85,0003.07
2024-03-18 22:43:00,SystemResetWarning,0832.3,5.00,000.00,022.4,021.8,000.0,030.8,024.2,13.6,0000.0,0003.65,0009.12,0003.10
2024-03-18 22:44:00,SystemResetWarning,0832.2,5.00,000.00,022.5,021.8,000.0,030.8,024.2,13.8,0000.0,0003.63,0009.56,0003.11
2024-03-18 22:45:00,SystemResetWarning,0832.2,5.00,000.00,022.5,021.9,000.0,030.8,024.3,13.9,0000.0,0003.63,0009.16,0003.14
2024-03-18 22:46:00,SystemResetWarning,0832.2,5.00,000.00,022.5,021.9,000.0,030.8,024.3,12.8,0000.0,0003.67,0009.52,0003.18
2024-03-18 22:47:00,SystemResetWarning,0832.2,4.99,000.00,022.5,021.9,000.0,030.8,024.3,13.0,0000.0,0003.70,0009.63,0003.23
2024-03-18 22:48:00,SystemResetWarning,0832.2,5.00,000.00,022.5,021.9,000.0,030.8,024.3,12.8,0000.0,0003.72,0010.08,0003.28
2024-03-18 22:49:00,SystemResetWarning,0832.2,5.00,000.00,022.5,021.9,000.0,030.8,024.3,12.7,0000.0,0003.76,0009.44,0003.31
2024-03-18 22:50:00,SystemResetWarning,0832.2,5.00,000.00,022.5,021.9,000.0,030.8,024.3,12.5,0000.0,0003.77,0008.80,0003.33
2024-03-18 22:51:00,SystemResetWarning,0832.2,5.01,000.00,022.5,021.9,000.0,030.9,024.3,12.4,0000.0,0003.79,0008.84,0003.35
2024-03-18 22:52:00,SystemResetWarning,0832.2,5.01,000.00,022.5,021.9,000.0,030.9,024.3,13.5,0000.0,0003.76,0008.70,0003.37
2024-03-18 22:53:00,SystemResetWarning,0832.2,5.01,000.00,022.5,021.9,000.0,030.9,024.3,12.8,0000.0,0003.78,0008.61,0003.39
2024-03-18 22:54:00,SystemResetWarning,0832.2,5.00,000.00,022.6,021.9,000.0,030.9,024.3,12.2,0000.0,0003.85,0008.55,0003.43
2024-03-18 22:55:00,SystemResetWarning,0832.2,5.00,000.00,022.6,021.9,000.0,030.9,024.3,12.3,0000.0,0003.94,0008.14,0003.48
2024-03-18 22:56:00,SystemResetWarning,0832.2,5.00,000.00,022.6,021.9,000.0,030.9,024.3,12.6,0000.0,0003.99,0008.52,0003.50
2024-03-18 22:57:00,SystemResetWarning,0832.2,4.99,000.00,022.6,021.9,000.0,030.9,024.3,12.6,0000.0,0004.02,0009.07,0003.51
2024-03-18 22:58:00,SystemResetWarning,0832.2,5.00,000.00,022.6,021.9,000.0,030.9,024.3,12.4,0000.0,0004.03,0009.71,0003.52
2024-03-18 22:59:00,SystemResetWarning,0832.2,5.00,000.00,022.6,021.9,000.0,030.9,024.3,12.5,0000.0,0004.06,0009.45,0003.54
